Location: Newark
(25.4297°S, 49.2719°W)
Time: 08:27:08
(UTC+00:00)

LightSail 2 - Visible Passes

Search period start: 15 October 2019 00:00
Search period end: 25 October 2019 00:00
Orbit: 707 x 723 km, 24.0° (Epoch: 14 October)

Date Brightness Start Highest point End Pass type
(mag) Time Alt. Az. Time Alt. Az. Time Alt. Az.
15 Oct 7.3 06:19:44 17° NE 06:19:44 17° NE 06:21:39 10° ENE visible
15 Oct 5.8 07:58:44 12° WNW 08:03:13 47° NNE 08:08:10 10° E visible
16 Oct 5.9 07:04:42 35° N 07:05:44 38° NNE 07:10:31 10° E visible
17 Oct 7.1 06:10:38 21° ENE 06:10:38 21° ENE 06:12:47 10° E visible
17 Oct 5.4 07:49:38 17° WNW 07:53:36 63° N 07:58:43 10° E visible
18 Oct 5.4 06:55:32 51° N 06:56:04 54° NNE 07:01:07 10° E visible
19 Oct 7.1 06:01:25 23° ENE 06:01:25 23° ENE 06:03:28 10° E visible
19 Oct 5.2 07:40:24 20° WNW 07:43:59 74° N 07:49:09 10° E visible
20 Oct 5.1 06:46:16 67° N 06:46:24 68° N 06:51:34 10° E visible
21 Oct 7.3 05:52:08 22° E 05:52:08 22° E 05:53:56 10° E visible
21 Oct 5.1 07:31:07 23° W 07:34:21 77° N 07:39:32 10° E visible
22 Oct 5.1 06:37:00 74° NE 06:37:00 74° NE 06:41:56 10° E visible
23 Oct 7.5 05:42:54 19° E 05:42:54 19° E 05:44:19 10° E visible
23 Oct 5.1 07:21:54 28° W 07:24:40 72° N 07:29:50 10° ENE visible
24 Oct 5.4 06:27:50 62° ENE 06:27:50 62° ENE 06:32:14 10° E visible
24 Oct 5.5 08:07:28 10° W 08:12:31 50° NNW 08:17:30 10° ENE visible
